Export;EXP-2023-01 (20230708 14:54);;;StationsCode;NL10131;NL10235;NL10444;NL10538;NL10633;NL10722;NL10738;NL10929
Periode;20060101 00:00 - 20070101 00:00;;;BeheerderMeetStation;RIVM;RIVM;RIVM;RIVM;RIVM;RIVM;RIVM;RIVM
Bron;https://data.rivm.nl/data/luchtmeetnet;;;StationsNaam;Vredepeel-Vredeweg;Huijbergen-Vennekenstraat;De Zilk-Vogelaarsdreef;Wieringerwerf-Medemblikkerweg;Zegveld-Oude Meije;Eibergen-Lintveldseweg;Wekerom-Riemterdijk;Valthermond-Noorderdiep
Beschrijving data;https://data.rivm.nl/data/luchtmeetnet/readme.pdf;;;Latitude,Longitude;(51.54052,5.85307);(51.434443,4.359835);(52.296556,4.510817);(52.803657,5.050509);(52.13795,4.83819);(52.091801,6.605367);(52.111621,5.708419);(52.875725,6.932432)
Accreditatienummer;https://www.rva.nl/alle-geaccrediteerden/;;;StationsGebied;regionaal;regionaal;regionaal;regionaal;regionaal;regionaal;regionaal;regionaal
;;;;StationsType;achtergrond;achtergrond;achtergrond;achtergrond;achtergrond;achtergrond;achtergrond;achtergrond
;;;;Meetprincipe;Geleidbaarheid;Geleidbaarheid;Geleidbaarheid;Geleidbaarheid;Geleidbaarheid;Geleidbaarheid;Geleidbaarheid;Geleidbaarheid
;;;;Meetopstelling;NH3 monitor AMOR ;NH3 monitor AMOR ;NH3 monitor AMOR ;NH3 monitor AMOR ;NH3 monitor AMOR ;NH3 monitor AMOR ;NH3 monitor AMOR ;NH3 monitor AMOR 
;;;;Accreditatienummer;nvt;nvt;nvt;nvt;nvt;nvt;nvt;nvt
Component;Bep.periode;Eenheid; Begindatumtijd;Einddatumtijd;NL10131;NL10235;NL10444;NL10538;NL10633;NL10722;NL10738;NL10929
NH3;uur;�g/m�;20060101 00:00;20060101 01:00;;2.33;0.42;;2.13;7.55;4.19;1.74
NH3;uur;�g/m�;20060101 01:00;20060101 02:00;;2.59;0.45;;2.39;7.97;4.19;1.75
NH3;uur;�g/m�;20060101 02:00;20060101 03:00;;2.76;0.45;;2.65;8.07;3.87;1.75
NH3;uur;�g/m�;20060101 03:00;20060101 04:00;;2.49;0.43;;2.8;8.28;4.08;1.67
NH3;uur;�g/m�;20060101 04:00;20060101 05:00;;1.82;0.4;;3.12;8.49;4.03;1.63
NH3;uur;�g/m�;20060101 05:00;20060101 06:00;;1.5;0.41;;3.53;8.65;4.08;1.69
NH3;uur;�g/m�;20060101 06:00;20060101 07:00;;1.5;0.39;;3.43;8.85;4.13;1.72
NH3;uur;�g/m�;20060101 07:00;20060101 08:00;;1.57;0.37;;2.8;8.49;4.19;1.8
NH3;uur;�g/m�;20060101 08:00;20060101 09:00;;1.57;0.39;;2.65;8.23;3.87;1.82
NH3;uur;�g/m�;20060101 09:00;20060101 10:00;;1.57;0.37;;2.7;8.07;3.72;1.88
NH3;uur;�g/m�;20060101 10:00;20060101 11:00;;1.5;0.34;;2.65;10.26;3.98;1.94
NH3;uur;�g/m�;20060101 11:00;20060101 12:00;;1.55;0.33;;3.12;10.63;4.03;1.82
NH3;uur;�g/m�;20060101 12:00;20060101 13:00;;1.54;0.36;;3.38;10.68;4.19;1.75
NH3;uur;�g/m�;20060101 13:00;20060101 14:00;;1.5;0.44;;3.74;10.63;4.34;1.74
NH3;uur;�g/m�;20060101 14:00;20060101 15:00;;1.48;0.48;;3.74;10.36;5.8;1.63
NH3;uur;�g/m�;20060101 15:00;20060101 16:00;;1.5;0.5;;4.21;9.43;8.67;1.63
NH3;uur;�g/m�;20060101 16:00;20060101 17:00;;1.5;0.47;;4.26;8.85;13.72;1.64
NH3;uur;�g/m�;20060101 17:00;20060101 18:00;;1.43;0.45;;5.3;9.64;19.13;1.69
NH3;uur;�g/m�;20060101 18:00;20060101 19:00;;1.35;0.38;;5.98;9.74;17.68;1.88
NH3;uur;�g/m�;20060101 19:00;20060101 20:00;;1.38;0.36;;8.27;9.38;16.84;1.75
NH3;uur;�g/m�;20060101 20:00;20060101 21:00;;1.45;0.34;;7.49;11.35;16.63;1.75
NH3;uur;�g/m�;20060101 21:00;20060101 22:00;;1.43;0.33;;6.82;11.2;17.78;1.64
NH3;uur;�g/m�;20060101 22:00;20060101 23:00;;1.12;0.32;;9.37;12.03;45.49;1.62
NH3;uur;�g/m�;20060101 23:00;20060102 00:00;;0.84;0.33;;8.74;13.02;32.73;1.44
NH3;uur;�g/m�;20060102 00:00;20060102 01:00;;0.66;0.29;;9.37;11.35;22.21;1.38
NH3;uur;�g/m�;20060102 01:00;20060102 02:00;;0.54;0.23;;8.95;10.94;56.53;1.5
NH3;uur;�g/m�;20060102 02:00;20060102 03:00;;0.45;0.2;;7.49;15.42;108.46;1.97
NH3;uur;�g/m�;20060102 03:00;20060102 04:00;;0.5;0.2;;7.91;18.75;94.24;1.9
NH3;uur;�g/m�;20060102 04:00;20060102 05:00;;0.44;0.18;;9.26;15.94;55.59;1.69
NH3;uur;�g/m�;20060102 05:00;20060102 06:00;;0.46;0.39;;14.37;12.4;38.14;1.77
NH3;uur;�g/m�;20060102 06:00;20060102 07:00;;0.46;1.32;;14.47;11.09;26.37;1.94
NH3;uur;�g/m�;20060102 07:00;20060102 08:00;;0.5;1.24;;14.89;12.08;25.59;1.88
NH3;uur;�g/m�;20060102 08:00;20060102 09:00;;0.49;1.26;;10.62;13.13;34.03;1.75
NH3;uur;�g/m�;20060102 09:00;20060102 10:00;;0.48;1.26;;10.62;12.87;41.01;1.63
NH3;uur;�g/m�;20060102 10:00;20060102 11:00;;0.58;1.26;;15.3;14.27;43.93;1.83
NH3;uur;�g/m�;20060102 11:00;20060102 12:00;;0.68;1.22;;14.52;15.63;70.8;1.99
NH3;uur;�g/m�;20060102 12:00;20060102 13:00;;0.88;1.21;;11.56;13.8;60.38;2.06
NH3;uur;�g/m�;20060102 13:00;20060102 14:00;;0.88;1.22;;11.56;13.44;45.23;2
NH3;uur;�g/m�;20060102 14:00;20060102 15:00;;0.98;1.19;;9.37;12.66;36.17;2.06
NH3;uur;�g/m�;20060102 15:00;20060102 16:00;;1.03;1.22;;7.49;12.29;34.34;1.93
NH3;uur;�g/m�;20060102 16:00;20060102 17:00;;1.02;1.21;;6.24;11.56;32.97;1.69
NH3;uur;�g/m�;20060102 17:00;20060102 18:00;;0.82;1.24;;8.17;11.41;28.51;1.56
NH3;uur;�g/m�;20060102 18:00;20060102 19:00;;0.6;1.23;;10.46;9.32;23.87;1.5
NH3;uur;�g/m�;20060102 19:00;20060102 20:00;;0.49;1.27;;9.06;9.17;18.25;1.5
NH3;uur;�g/m�;20060102 20:00;20060102 21:00;;0.43;1.3;;8.64;8.18;18.61;1.5
NH3;uur;�g/m�;20060102 21:00;20060102 22:00;;0.44;1.32;;7.23;7.34;20.59;1.5
NH3;uur;�g/m�;20060102 22:00;20060102 23:00;;0.41;1.37;;6.92;7.34;22.62;1.44
NH3;uur;�g/m�;20060102 23:00;20060103 00:00;;0.38;1.39;;7.8;7.6;68.56;1.44
NH3;uur;�g/m�;20060103 00:00;20060103 01:00;;0.33;1.4;;7.08;9.84;67.88;1.56
NH3;uur;�g/m�;20060103 01:00;20060103 02:00;;0.32;1.46;;5.88;11.04;89.6;1.69
NH3;uur;�g/m�;20060103 02:00;20060103 03:00;;0.29;1.51;;11.66;10.94;43.09;1.99
NH3;uur;�g/m�;20060103 03:00;20060103 04:00;;0.28;1.53;;18.22;10.78;41.22;2.06
NH3;uur;�g/m�;20060103 04:00;20060103 05:00;;0.26;1.54;;19.16;14.12;56.48;1.94
NH3;uur;�g/m�;20060103 05:00;20060103 06:00;;0.29;1.56;;20.62;13.39;55.02;1.94
NH3;uur;�g/m�;20060103 06:00;20060103 07:00;;0.29;1.67;;21.45;15.94;42.73;1.94
NH3;uur;�g/m�;20060103 07:00;20060103 08:00;;0.29;1.69;;16.24;21.93;41.27;1.92
NH3;uur;�g/m�;20060103 08:00;20060103 09:00;;0.26;1.72;;16.24;23.07;63.67;2
NH3;uur;�g/m�;20060103 09:00;20060103 10:00;;0.28;1.7;;14.63;22.71;42.31;1.97
NH3;uur;�g/m�;20060103 10:00;20060103 11:00;;0.35;1.56;;15.25;27.24;39.6;2.44
NH3;uur;�g/m�;20060103 11:00;20060103 12:00;;0.44;1.48;;13.33;21.56;24.86;2.61
NH3;uur;�g/m�;20060103 12:00;20060103 13:00;;0.7;1.42;;12.96;25.47;23.82;3.39
NH3;uur;�g/m�;20060103 13:00;20060103 14:00;;;;;;;;
NH3;uur;�g/m�;20060103 14:00;20060103 15:00;;;;;;;;
NH3;uur;�g/m�;20060103 15:00;20060103 16:00;;;;;;;;
NH3;uur;�g/m�;20060103 16:00;20060103 17:00;;;;;6.5;15.94;18.87;2
NH3;uur;�g/m�;20060103 17:00;20060103 18:00;;;;1.47;7.8;19.17;23.3;2.57
NH3;uur;�g/m�;20060103 18:00;20060103 19:00;;;;1.84;8.12;21.67;20.44;2.94
NH3;uur;�g/m�;20060103 19:00;20060103 20:00;;0.37;;1.66;9.06;20.68;20.44;3.81
NH3;uur;�g/m�;20060103 20:00;20060103 21:00;;0.38;;1.79;7.49;20.57;19.97;4.26
NH3;uur;�g/m�;20060103 21:00;20060103 22:00;;0.44;;1.86;6.66;21.2;20.96;4.44
NH3;uur;�g/m�;20060103 22:00;20060103 23:00;;0.5;;1.81;6.61;23.02;21.63;4.52
NH3;uur;�g/m�;20060103 23:00;20060104 00:00;;0.52;;1.75;6.09;22.19;21.58;4.31
NH3;uur;�g/m�;20060104 00:00;20060104 01:00;;0.58;;1.7;5.51;20.99;19.29;4.26
NH3;uur;�g/m�;20060104 01:00;20060104 02:00;;0.57;;1.64;5.62;18.07;18.14;5.44
NH3;uur;�g/m�;20060104 02:00;20060104 03:00;;0.56;;1.57;4.52;18.13;18.77;5.96
NH3;uur;�g/m�;20060104 03:00;20060104 04:00;;0.57;;1.65;3.79;19.64;23.56;6.19
NH3;uur;�g/m�;20060104 04:00;20060104 05:00;;0.57;;1.94;3.95;18.07;24.66;7.94
NH3;uur;�g/m�;20060104 05:00;20060104 06:00;;0.62;;1.88;4.99;16.09;19.5;6.94
NH3;uur;�g/m�;20060104 06:00;20060104 07:00;;0.71;;2.32;4.73;15.52;20.49;6.63
NH3;uur;�g/m�;20060104 07:00;20060104 08:00;;0.74;;2.35;5.62;16.67;23.87;6.01
NH3;uur;�g/m�;20060104 08:00;20060104 09:00;;0.76;;2.12;6.92;16.25;19.71;6
NH3;uur;�g/m�;20060104 09:00;20060104 10:00;;0.93;;2;7.6;17.55;18.09;5.57
NH3;uur;�g/m�;20060104 10:00;20060104 11:00;;1.33;;2.39;9.16;17.24;19.65;6.99
NH3;uur;�g/m�;20060104 11:00;20060104 12:00;;1.73;;2.99;8.69;16.88;19.45;9.77
NH3;uur;�g/m�;20060104 12:00;20060104 13:00;;2.15;;3.66;7.49;15.99;17.31;9.88
NH3;uur;�g/m�;20060104 13:00;20060104 14:00;;2.42;;3.4;6.55;15.94;15.7;9.49
NH3;uur;�g/m�;20060104 14:00;20060104 15:00;;2.39;;3.19;5.93;15.1;14.45;7.69
NH3;uur;�g/m�;20060104 15:00;20060104 16:00;;2.05;;2.92;4.89;15.1;13.46;5.51
NH3;uur;�g/m�;20060104 16:00;20060104 17:00;;1.87;;2.87;4.37;13.91;13.67;4.18
NH3;uur;�g/m�;20060104 17:00;20060104 18:00;;1.64;;2.87;4.42;11.93;12.78;3.63
NH3;uur;�g/m�;20060104 18:00;20060104 19:00;;1.66;;2.93;4.58;10.99;11.84;3.13
NH3;uur;�g/m�;20060104 19:00;20060104 20:00;;1.59;;2.74;4.16;9.22;10.75;2.88
NH3;uur;�g/m�;20060104 20:00;20060104 21:00;;1.53;;2.26;3.79;7.81;9.45;2.68
NH3;uur;�g/m�;20060104 21:00;20060104 22:00;;1.46;;1.82;3.69;7.45;7.94;2.63
NH3;uur;�g/m�;20060104 22:00;20060104 23:00;;1.44;;1.61;3.48;7.29;7;2.57
NH3;uur;�g/m�;20060104 23:00;20060105 00:00;;1.57;;1.69;3.38;6.98;6.32;2.63
NH3;uur;�g/m�;20060105 00:00;20060105 01:00;;1.54;;1.55;3.12;6.98;6.06;2.68
NH3;uur;�g/m�;20060105 01:00;20060105 02:00;;1.44;;1.53;2.8;6.88;6.17;2.44
NH3;uur;�g/m�;20060105 02:00;20060105 03:00;;1.2;;1.52;2.75;6.51;6.22;2.45
NH3;uur;�g/m�;20060105 03:00;20060105 04:00;;1.16;;1.38;2.6;6.25;6.43;2.33
NH3;uur;�g/m�;20060105 04:00;20060105 05:00;;1.22;;1.24;2.75;6.2;5.85;2.19
NH3;uur;�g/m�;20060105 05:00;20060105 06:00;;1.35;;1.15;2.8;6.15;5.54;2.13
NH3;uur;�g/m�;20060105 06:00;20060105 07:00;;1.48;;1.12;2.8;7.14;5.28;1.99
NH3;uur;�g/m�;20060105 07:00;20060105 08:00;;1.43;;1.15;2.6;6.98;4.71;1.88
NH3;uur;�g/m�;20060105 08:00;20060105 09:00;;1.24;;1.19;2.23;6.56;4.76;1.89
NH3;uur;�g/m�;20060105 09:00;20060105 10:00;;1.08;;1.12;2.49;6.61;5.07;2.06
NH3;uur;�g/m�;20060105 10:00;20060105 11:00;;1.21;;1.18;3.12;6.2;5.18;2.19
NH3;uur;�g/m�;20060105 11:00;20060105 12:00;;1.44;;1.17;3.48;6.41;5.18;2.25
NH3;uur;�g/m�;20060105 12:00;20060105 13:00;;1.67;;1.21;3.69;6.3;5.33;2.25
NH3;uur;�g/m�;20060105 13:00;20060105 14:00;;1.83;;1.23;3.64;6.25;5.38;2.23
NH3;uur;�g/m�;20060105 14:00;20060105 15:00;;1.88;;1.26;3.9;6.15;5.28;2.24
NH3;uur;�g/m�;20060105 15:00;20060105 16:00;;1.88;;1.25;3.85;6.3;5.44;2.18
NH3;uur;�g/m�;20060105 16:00;20060105 17:00;;1.81;;1.22;3.53;6.15;5.59;2.08
NH3;uur;�g/m�;20060105 17:00;20060105 18:00;;1.72;;1.31;3.07;6.09;5.8;1.92
NH3;uur;�g/m�;20060105 18:00;20060105 19:00;;1.77;0.55;1.48;3.22;6.3;6.06;1.82
NH3;uur;�g/m�;20060105 19:00;20060105 20:00;;1.76;0.64;1.47;3.53;6.3;6.06;1.95
NH3;uur;�g/m�;20060105 20:00;20060105 21:00;;1.87;0.69;1.37;3.22;6.3;6.11;1.99
NH3;uur;�g/m�;20060105 21:00;20060105 22:00;;1.94;0.75;1.41;3.74;6.04;5.75;1.82
NH3;uur;�g/m�;20060105 22:00;20060105 23:00;;2.07;0.82;1.39;3.74;5.99;5.75;1.63
NH3;uur;�g/m�;20060105 23:00;20060106 00:00;;2.18;0.83;1.37;4.11;6.2;5.7;1.67
NH3;uur;�g/m�;20060106 00:00;20060106 01:00;;2.32;0.84;1.41;4.37;5.99;5.8;1.63
NH3;uur;�g/m�;20060106 01:00;20060106 02:00;;2.34;0.86;1.28;4.21;6.04;5.59;1.63
NH3;uur;�g/m�;20060106 02:00;20060106 03:00;;2.16;0.85;1.18;4.06;5.99;5.59;1.56
NH3;uur;�g/m�;20060106 03:00;20060106 04:00;;1.43;0.86;1.4;4.37;6.04;5.64;1.53
NH3;uur;�g/m�;20060106 04:00;20060106 05:00;;1.08;0.84;1.49;4.84;6.04;5.44;1.5
NH3;uur;�g/m�;20060106 05:00;20060106 06:00;;0.93;0.84;1.43;4.94;6.15;5.54;1.44
NH3;uur;�g/m�;20060106 06:00;20060106 07:00;;0.85;0.81;1.4;5.83;6.04;5.54;1.44
NH3;uur;�g/m�;20060106 07:00;20060106 08:00;;0.82;0.83;1.38;4.84;5.94;5.64;1.38
NH3;uur;�g/m�;20060106 08:00;20060106 09:00;;0.85;0.89;1.33;4.68;5.83;5.85;1.38
NH3;uur;�g/m�;20060106 09:00;20060106 10:00;;1.03;0.92;1.3;4.37;5.89;5.7;1.42
NH3;uur;�g/m�;20060106 10:00;20060106 11:00;;1.16;0.97;1.45;;5.83;5.96;1.43
NH3;uur;�g/m�;20060106 11:00;20060106 12:00;;1.56;1.05;1.51;;6.04;6.11;1.36
NH3;uur;�g/m�;20060106 12:00;20060106 13:00;;2.51;1.08;1.47;;5.99;6.17;1.38
NH3;uur;�g/m�;20060106 13:00;20060106 14:00;;3.54;1.09;1.46;;5.99;6.17;1.31
NH3;uur;�g/m�;20060106 14:00;20060106 15:00;;3.83;1.07;1.37;;6.04;6.06;1.28
NH3;uur;�g/m�;20060106 15:00;20060106 16:00;;3.55;1.01;1.42;;6.15;6.01;1.31
NH3;uur;�g/m�;20060106 16:00;20060106 17:00;;2.51;;1.5;;5.99;6.22;1.3
NH3;uur;�g/m�;20060106 17:00;20060106 18:00;;1.5;;1.46;2.49;6.09;6.74;1.31
NH3;uur;�g/m�;20060106 18:00;20060106 19:00;;1.12;;1.5;3.01;6.04;6.84;1.31
NH3;uur;�g/m�;20060106 19:00;20060106 20:00;;1.07;;1.39;3.22;5.83;6.53;1.3
NH3;uur;�g/m�;20060106 20:00;20060106 21:00;;1.16;;1.47;3.07;5.73;6.32;1.2
NH3;uur;�g/m�;20060106 21:00;20060106 22:00;;1.19;;1.42;3.12;5.47;6.32;1.06
NH3;uur;�g/m�;20060106 22:00;20060106 23:00;;1.33;;1.37;3.33;5.42;6.11;1.05
NH3;uur;�g/m�;20060106 23:00;20060107 00:00;;1.32;;1.31;2.8;5.42;5.9;1
NH3;uur;�g/m�;20060107 00:00;20060107 01:00;;;;;;;;
NH3;uur;�g/m�;20060107 01:00;20060107 02:00;;;;;;;;
NH3;uur;�g/m�;20060107 02:00;20060107 03:00;;;;;;;;
NH3;uur;�g/m�;20060107 03:00;20060107 04:00;;0.97;;0.98;2.28;5.42;3.98;1
NH3;uur;�g/m�;20060107 04:00;20060107 05:00;;1.35;;0.93;3.48;5.21;4.65;0.88
NH3;uur;�g/m�;20060107 05:00;20060107 06:00;;1.64;;0.95;4.11;5.57;5.02;0.93
NH3;uur;�g/m�;20060107 06:00;20060107 07:00;;1.6;;0.93;4.63;5.57;5.28;0.93
NH3;uur;�g/m�;20060107 07:00;20060107 08:00;;1.21;;0.96;4.21;5.52;5.33;0.99
NH3;uur;�g/m�;20060107 08:00;20060107 09:00;;0.96;;0.94;4.26;5.68;5.49;1.06
NH3;uur;�g/m�;20060107 09:00;20060107 10:00;;1.13;;0.93;5.36;5.63;5.96;1.14
NH3;uur;�g/m�;20060107 10:00;20060107 11:00;;1.54;;1.01;6.29;6.04;5.8;1.2
NH3;uur;�g/m�;20060107 11:00;20060107 12:00;;2.46;;1.04;6.61;6.3;6.37;1.25
NH3;uur;�g/m�;20060107 12:00;20060107 13:00;;3.21;;1.16;6.19;6.61;7;1.31
NH3;uur;�g/m�;20060107 13:00;20060107 14:00;;3.69;;1.22;6.29;6.77;6.89;1.31
NH3;uur;�g/m�;20060107 14:00;20060107 15:00;;4.09;;1.28;5.93;7.14;6.84;1.37
NH3;uur;�g/m�;20060107 15:00;20060107 16:00;;4.09;;1.39;4.37;7.4;6.84;1.43
NH3;uur;�g/m�;20060107 16:00;20060107 17:00;;3.7;;1.46;3.33;7.34;7.21;1.49
NH3;uur;�g/m�;20060107 17:00;20060107 18:00;;2.35;;1.51;3.38;7.55;7.88;1.5
NH3;uur;�g/m�;20060107 18:00;20060107 19:00;;1.81;;1.65;3.33;7.55;8.14;1.5
NH3;uur;�g/m�;20060107 19:00;20060107 20:00;;1.66;;1.74;3.74;7.55;7.99;1.5
NH3;uur;�g/m�;20060107 20:00;20060107 21:00;;1.5;;1.88;4;7.6;7.88;1.44
NH3;uur;�g/m�;20060107 21:00;20060107 22:00;;1.29;;2.37;4.78;7.34;7.73;1.31
NH3;uur;�g/m�;20060107 22:00;20060107 23:00;;1.22;;2.51;5.36;7.14;7.52;1.25
NH3;uur;�g/m�;20060107 23:00;20060108 00:00;;1.19;;2.18;4.52;6.98;7.26;1.19
NH3;uur;�g/m�;20060108 00:00;20060108 01:00;;1.38;;1.85;4.78;7.03;7;1.19
NH3;uur;�g/m�;20060108 01:00;20060108 02:00;;1.66;;1.76;4.37;6.98;7.05;1.17
NH3;uur;�g/m�;20060108 02:00;20060108 03:00;;1.83;;1.52;3.85;7.19;6.84;1.13
NH3;uur;�g/m�;20060108 03:00;20060108 04:00;;2.18;;1.5;3.48;7.19;6.79;1.13
NH3;uur;�g/m�;20060108 04:00;20060108 05:00;;2.56;;1.63;3.79;7.14;6.84;1.06
NH3;uur;�g/m�;20060108 05:00;20060108 06:00;;3;;1.55;4.37;7.34;6.69;1.03
NH3;uur;�g/m�;20060108 06:00;20060108 07:00;;2.98;;1.52;4.21;7.34;6.84;1
NH3;uur;�g/m�;20060108 07:00;20060108 08:00;;2.85;;1.73;4.06;7.34;6.69;1
NH3;uur;�g/m�;20060108 08:00;20060108 09:00;;2.91;;1.53;3.53;7.19;6.89;1
NH3;uur;�g/m�;20060108 09:00;20060108 10:00;;3.29;;1.56;3.33;7.29;7.42;1
NH3;uur;�g/m�;20060108 10:00;20060108 11:00;;3.89;;1.65;3.48;7.34;7.26;1.06
NH3;uur;�g/m�;20060108 11:00;20060108 12:00;;5.38;;1.78;3.74;7.45;7.42;1.12
NH3;uur;�g/m�;20060108 12:00;20060108 13:00;;6.14;;1.66;3.79;7.55;7.36;1.13
NH3;uur;�g/m�;20060108 13:00;20060108 14:00;;7.25;;1.62;4.26;7.55;7.52;1.19
NH3;uur;�g/m�;20060108 14:00;20060108 15:00;;6.7;;1.63;5.62;7.55;7.36;1.19
NH3;uur;�g/m�;20060108 15:00;20060108 16:00;;5.08;;1.65;5.57;7.55;7.36;1.25
NH3;uur;�g/m�;20060108 16:00;20060108 17:00;;3.92;;1.7;6.97;7.86;7.42;1.24
NH3;uur;�g/m�;20060108 17:00;20060108 18:00;;3.1;;1.74;6.24;8.18;7.52;1.25
NH3;uur;�g/m�;20060108 18:00;20060108 19:00;;2.36;;1.87;4.63;7.92;7.94;1.31
NH3;uur;�g/m�;20060108 19:00;20060108 20:00;;2.33;;1.84;5.3;7.55;7.94;1.31
NH3;uur;�g/m�;20060108 20:00;20060108 21:00;;3.05;;1.91;5.67;7.24;8.25;1.42
NH3;uur;�g/m�;20060108 21:00;20060108 22:00;;3.19;;1.92;4.26;6.51;8.72;1.49
NH3;uur;�g/m�;20060108 22:00;20060108 23:00;;2.6;;2.44;4.37;6.35;9.19;1.5
NH3;uur;�g/m�;20060108 23:00;20060109 00:00;;2.51;;2.26;4.06;6.2;10.07;1.5
NH3;uur;�g/m�;20060109 00:00;20060109 01:00;;2.55;;2.44;4.06;6.15;8.51;1.62
NH3;uur;�g/m�;20060109 01:00;20060109 02:00;;2.51;;2.6;4.16;5.99;7.99;1.69
NH3;uur;�g/m�;20060109 02:00;20060109 03:00;;2.51;;2.65;3.74;5.89;9.81;1.8
NH3;uur;�g/m�;20060109 03:00;20060109 04:00;;2.62;;2.33;4;5.78;9.13;1.83
NH3;uur;�g/m�;20060109 04:00;20060109 05:00;;2.19;;2.14;3.74;5.68;7.94;1.93
NH3;uur;�g/m�;20060109 05:00;20060109 06:00;;2.35;;1.93;3.43;6.46;7.15;1.93
NH3;uur;�g/m�;20060109 06:00;20060109 07:00;;2.51;;1.84;3.53;6.35;7.26;1.62
NH3;uur;�g/m�;20060109 07:00;20060109 08:00;;2.37;;1.8;3.74;6.15;8.41;1.43
NH3;uur;�g/m�;20060109 08:00;20060109 09:00;;2.31;;1.67;4.16;5.68;9.6;1.3
NH3;uur;�g/m�;20060109 09:00;20060109 10:00;;2.61;;1.35;4.89;5.78;11.58;1.25
NH3;uur;�g/m�;20060109 10:00;20060109 11:00;;3.93;;1.23;6.71;5.52;11.06;1.19
NH3;uur;�g/m�;20060109 11:00;20060109 12:00;;4.37;;1.21;8.53;5.73;10.33;1.17
NH3;uur;�g/m�;20060109 12:00;20060109 13:00;;5.88;;1.2;7.23;6.04;11.43;1.19
NH3;uur;�g/m�;20060109 13:00;20060109 14:00;;7.63;;1.07;7.28;6.51;10.91;1.25
NH3;uur;�g/m�;20060109 14:00;20060109 15:00;;8.01;;1.07;6.97;6.61;10.23;1.19
NH3;uur;�g/m�;20060109 15:00;20060109 16:00;;7.82;;1;6.87;6.41;10.12;1.18
NH3;uur;�g/m�;20060109 16:00;20060109 17:00;;5.81;;0.97;5.72;6.25;10.38;1.25
NH3;uur;�g/m�;20060109 17:00;20060109 18:00;;3.07;;0.97;5.88;6.77;10.7;1.34
NH3;uur;�g/m�;20060109 18:00;20060109 19:00;;2.22;;1.04;7.39;7.4;10.59;1.38
NH3;uur;�g/m�;20060109 19:00;20060109 20:00;;2.09;;1.28;7.7;8.54;9.39;1.25
NH3;uur;�g/m�;20060109 20:00;20060109 21:00;;2.18;;1.66;10.1;10.73;7.83;1.11
NH3;uur;�g/m�;20060109 21:00;20060109 22:00;;2.24;;2.24;11.5;12.6;8.2;1.06
NH3;uur;�g/m�;20060109 22:00;20060109 23:00;;2.38;;2.94;11.66;14.69;11.11;1.13
NH3;uur;�g/m�;20060109 23:00;20060110 00:00;;2.95;;3.64;11.87;16.62;11.11;1.31
NH3;uur;�g/m�;20060110 00:00;20060110 01:00;;4.15;;4.17;11.87;17.87;12.47;1.39
NH3;uur;�g/m�;20060110 01:00;20060110 02:00;;4.6;;4.71;11.5;20.57;13.41;1.56
NH3;uur;�g/m�;20060110 02:00;20060110 03:00;;6.29;;4.59;10.93;17.81;14.76;1.84
NH3;uur;�g/m�;20060110 03:00;20060110 04:00;;6.03;;3.99;8.9;15.05;16.43;2.25
NH3;uur;�g/m�;20060110 04:00;20060110 05:00;;4.75;;2.65;5.88;14.64;14.86;2.38
NH3;uur;�g/m�;20060110 05:00;20060110 06:00;;4.04;;2.52;4.32;15.52;13.41;2.63
NH3;uur;�g/m�;20060110 06:00;20060110 07:00;;3.1;;2.64;4.11;15.42;11.58;2.82
NH3;uur;�g/m�;20060110 07:00;20060110 08:00;;2.12;;2.59;3.74;14.53;9.71;2.64
NH3;uur;�g/m�;20060110 08:00;20060110 09:00;;2.11;;2.46;3.74;14.48;8.67;2.18
NH3;uur;�g/m�;20060110 09:00;20060110 10:00;;3.22;;2.45;3.53;14.69;7.99;1.75
NH3;uur;�g/m�;20060110 10:00;20060110 11:00;;3.73;;2.52;;14.12;9.39;1.86
NH3;uur;�g/m�;20060110 11:00;20060110 12:00;;;;;;;;
NH3;uur;�g/m�;20060110 12:00;20060110 13:00;;;;;;;;
NH3;uur;�g/m�;20060110 13:00;20060110 14:00;;;;;;;;
NH3;uur;�g/m�;20060110 14:00;20060110 15:00;;;;2.3;3.43;16.35;9.55;1.99
NH3;uur;�g/m�;20060110 15:00;20060110 16:00;;;;2.25;5.1;18.54;10.96;2.45
NH3;uur;�g/m�;20060110 16:00;20060110 17:00;;;;1.87;5.46;18.39;10.7;2.89
NH3;uur;�g/m�;20060110 17:00;20060110 18:00;;1.29;;1.84;4.42;18.49;10.49;3.19
NH3;uur;�g/m�;20060110 18:00;20060110 19:00;;1.87;;1.95;3.74;17.97;10.38;3.39
NH3;uur;�g/m�;20060110 19:00;20060110 20:00;;1.88;;2.07;3.43;16.25;9.86;3.64
NH3;uur;�g/m�;20060110 20:00;20060110 21:00;;1.9;;1.99;3.17;15.26;8.87;3.69
NH3;uur;�g/m�;20060110 21:00;20060110 22:00;;1.84;;2.01;3.07;14.95;8.3;3.62
NH3;uur;�g/m�;20060110 22:00;20060110 23:00;;1.81;;2.07;3.43;14.12;7.62;3.63
NH3;uur;�g/m�;20060110 23:00;20060111 00:00;;1.76;;2.18;3.43;13.49;7.1;3.49
NH3;uur;�g/m�;20060111 00:00;20060111 01:00;9.18;1.73;;2.28;3.69;12.86;6.95;3.5
NH3;uur;�g/m�;20060111 01:00;20060111 02:00;10.84;1.67;;2.26;3.33;12.97;6.89;3.5
NH3;uur;�g/m�;20060111 02:00;20060111 03:00;11.36;1.63;;2.15;2.86;13.54;6.84;3.37
NH3;uur;�g/m�;20060111 03:00;20060111 04:00;10.95;1.44;;1.92;2.75;12.4;6.58;3.33
NH3;uur;�g/m�;20060111 04:00;20060111 05:00;9.59;1.39;;1.81;2.49;11.3;5.9;3.25
NH3;uur;�g/m�;20060111 05:00;20060111 06:00;9.02;1.31;;1.76;2.34;12.19;5.44;3.13
NH3;uur;�g/m�;20060111 06:00;20060111 07:00;8.71;1.36;;1.73;2.13;13.33;5.28;2.98
NH3;uur;�g/m�;20060111 07:00;20060111 08:00;7.98;1.41;;1.62;1.92;11.82;5.12;2.88
NH3;uur;�g/m�;20060111 08:00;20060111 09:00;7.72;1.44;;1.63;1.97;10.89;5.44;2.75
NH3;uur;�g/m�;20060111 09:00;20060111 10:00;7.3;1.44;;1.54;1.87;10.52;5.28;2.63
NH3;uur;�g/m�;20060111 10:00;20060111 11:00;7.3;1.4;;1.54;1.92;10.83;5.02;2.35
NH3;uur;�g/m�;20060111 11:00;20060111 12:00;7.35;1.39;;1.58;1.92;10.63;4.71;2.32
NH3;uur;�g/m�;20060111 12:00;20060111 13:00;6.83;1.38;;1.58;;9.84;4.76;2.3
NH3;uur;�g/m�;20060111 13:00;20060111 14:00;6.88;1.29;;1.56;1.82;9.84;4.6;2.32
NH3;uur;�g/m�;20060111 14:00;20060111 15:00;6.47;1.8;;1.64;1.76;9.27;4.24;2.24
NH3;uur;�g/m�;20060111 15:00;20060111 16:00;6.31;2.79;;1.61;2.02;8.49;4.24;2.19
NH3;uur;�g/m�;20060111 16:00;20060111 17:00;6;2.74;;1.53;1.87;8.18;4.13;2.13
NH3;uur;�g/m�;20060111 17:00;20060111 18:00;6.05;2.44;0.39;1.4;1.87;7.86;4.03;2.16
NH3;uur;�g/m�;20060111 18:00;20060111 19:00;6.15;2.34;0.46;1.36;1.87;8.02;4.08;2.19
NH3;uur;�g/m�;20060111 19:00;20060111 20:00;6.21;2.18;0.88;1.2;1.56;7.86;4.29;2.11
NH3;uur;�g/m�;20060111 20:00;20060111 21:00;6.36;1.88;0.93;1.11;1.29;7.76;4.65;2.06
NH3;uur;�g/m�;20060111 21:00;20060111 22:00;6.88;1.76;0.56;1.18;0.93;7.71;4.65;1.85
NH3;uur;�g/m�;20060111 22:00;20060111 23:00;7.35;1.68;0.79;1.19;1.66;7.86;4.55;1.56
NH3;uur;�g/m�;20060111 23:00;20060112 00:00;8.03;1.41;0.8;1.33;2.8;7.55;4.29;1.43
NH3;uur;�g/m�;20060112 00:00;20060112 01:00;8.76;1.21;0.77;1.2;4.63;7.55;3.87;1.36
NH3;uur;�g/m�;20060112 01:00;20060112 02:00;8.45;0.95;0.58;1.29;4.68;7.29;3.98;1.38
NH3;uur;�g/m�;20060112 02:00;20060112 03:00;9.7;0.88;0.39;1.4;5.98;7.24;4.29;1.31
NH3;uur;�g/m�;20060112 03:00;20060112 04:00;9.23;0.76;0.39;1.53;8.17;7.55;4.13;1.25
NH3;uur;�g/m�;20060112 04:00;20060112 05:00;10.06;0.76;0.39;1.53;8.74;8.44;3.98;1.31
NH3;uur;�g/m�;20060112 05:00;20060112 06:00;9.07;0.72;0.26;1.46;7.8;9.12;3.51;1.44
NH3;uur;�g/m�;20060112 06:00;20060112 07:00;9.38;0.69;0.27;1.66;6.19;8.23;3.98;1.35
NH3;uur;�g/m�;20060112 07:00;20060112 08:00;8.97;0.64;0.3;1.69;4.78;7.92;4.08;1.18
NH3;uur;�g/m�;20060112 08:00;20060112 09:00;7.66;0.68;0.27;1.63;3.69;7.76;4.81;1.13
NH3;uur;�g/m�;20060112 09:00;20060112 10:00;7.51;0.73;0.22;1.45;3.22;8.8;5.33;1.04
NH3;uur;�g/m�;20060112 10:00;20060112 11:00;8.92;0.83;0.26;1.28;2.8;12.87;5.18;1.04
NH3;uur;�g/m�;20060112 11:00;20060112 12:00;9.54;0.88;0.21;1.15;2.44;13.54;5.07;1.13
NH3;uur;�g/m�;20060112 12:00;20060112 13:00;8.86;0.98;0.17;1.13;2.34;14.12;5.75;1.3
NH3;uur;�g/m�;20060112 13:00;20060112 14:00;7.66;0.97;0.26;1.03;2.49;14.53;6.43;1.44
NH3;uur;�g/m�;20060112 14:00;20060112 15:00;6.62;1;0.27;1.02;2.34;13.49;6.79;1.67
NH3;uur;�g/m�;20060112 15:00;20060112 16:00;6.05;1;0.27;1;2.6;12.24;6.74;1.94
NH3;uur;�g/m�;20060112 16:00;20060112 17:00;5.22;1.05;0.26;1.09;2.54;10.16;6.84;1.94
NH3;uur;�g/m�;20060112 17:00;20060112 18:00;5.16;1.1;0.29;1.26;2.54;8.49;6.69;1.94
NH3;uur;�g/m�;20060112 18:00;20060112 19:00;5.79;1.07;0.33;1.31;2.44;15.47;6.53;2.3
NH3;uur;�g/m�;20060112 19:00;20060112 20:00;5.63;1;0.33;1.42;2.23;16.04;6.01;2.75
NH3;uur;�g/m�;20060112 20:00;20060112 21:00;5.69;0.97;0.42;1.41;2.13;9.38;5.64;2.76
NH3;uur;�g/m�;20060112 21:00;20060112 22:00;4.54;1;0.39;1.37;2.08;7.55;6.48;2.66
NH3;uur;�g/m�;20060112 22:00;20060112 23:00;6.42;1;0.42;1.3;1.87;8.44;6.89;2.69
NH3;uur;�g/m�;20060112 23:00;20060113 00:00;9.54;0.82;0.43;1.24;1.97;8.96;6.69;3.06
NH3;uur;�g/m�;20060113 00:00;20060113 01:00;9.18;0.86;0.5;1.34;2.18;8.07;7;2.78
NH3;uur;�g/m�;20060113 01:00;20060113 02:00;9.07;0.97;0.52;1.27;2.28;7.92;8.46;2.58